Meteo pe oră la Dzielow

Astăzi, 4 Martie, Joi

Timp Temperatura Precipitaţii Vânt Presiune Umiditate
00:00 +4°C° 0 mm 3 m/s 746 mmHg 73%
01:00 +4°C° 0 mm 3 m/s 746 mmHg 73%
02:00 +4°C° 0 mm 3 m/s 745 mmHg 74%
03:00 +4°C° 0 mm 3 m/s 744 mmHg 75%
04:00 +4°C° 0 mm 3 m/s 744 mmHg 75%
05:00 +4°C° 0 mm 3 m/s 744 mmHg 76%
06:00 +4°C° 0 mm 3 m/s 743 mmHg 77%
07:00 +3°C° 0 mm 3 m/s 743 mmHg 78%
08:00 +5°C° 0 mm 3 m/s 743 mmHg 73%
09:00 +8°C° 0 mm 3 m/s 743 mmHg 69%
10:00 +9°C° 0 mm 3 m/s 743 mmHg 64%
11:00 +10°C° 0 mm 3 m/s 742 mmHg 64%
12:00 +11°C° 0 mm 3 m/s 742 mmHg 63%
13:00 +11°C° 0 mm 3 m/s 741 mmHg 62%
14:00 +11°C° 0.1 mm 3 m/s 741 mmHg 66%
15:00 +10°C° 0.1 mm 3 m/s 740 mmHg 70%
16:00 +10°C° 0.1 mm 3 m/s 740 mmHg 74%
17:00 +9°C° 0.3 mm 2 m/s 739 mmHg 78%
18:00 +8°C° 0.3 mm 2 m/s 739 mmHg 83%
19:00 +8°C° 0.3 mm 2 m/s 739 mmHg 87%
20:00 +7°C° 1.7 mm 2 m/s 739 mmHg 89%
21:00 +7°C° 1.7 mm 2 m/s 739 mmHg 90%
22:00 +7°C° 1.7 mm 2 m/s 739 mmHg 92%
23:00 +4°C° 1.1 mm 3 m/s 739 mmHg 93%

Mâine, 5 Martie, Vineri

Timp Temperatura Precipitaţii Vânt Presiune Umiditate
00:00 +3°C° 1.1 mm 4 m/s 739 mmHg 93%
01:00 +1°C° 1.1 mm 5 m/s 739 mmHg 94%
02:00 +1°C° 0.3 mm 4 m/s 739 mmHg 92%
03:00 0°C° 0.3 mm 4 m/s 740 mmHg 90%
04:00 0°C° 0.3 mm 4 m/s 740 mmHg 88%
05:00 0°C° 0.2 mm 4 m/s 741 mmHg 90%
06:00 -1°C° 0.2 mm 4 m/s 741 mmHg 92%
07:00 -1°C° 0.2 mm 4 m/s 742 mmHg 93%
08:00 -1°C° 0.2 mm 4 m/s 742 mmHg 87%
09:00 -1°C° 0.2 mm 5 m/s 743 mmHg 81%
10:00 -1°C° 0.2 mm 5 m/s 743 mmHg 75%
11:00 0°C° 0 mm 5 m/s 744 mmHg 68%
12:00 0°C° 0 mm 5 m/s 744 mmHg 61%
13:00 +1°C° 0 mm 5 m/s 745 mmHg 55%
14:00 +1°C° 0 mm 5 m/s 745 mmHg 54%
15:00 +1°C° 0 mm 5 m/s 745 mmHg 53%
16:00 0°C° 0 mm 5 m/s 745 mmHg 52%
17:00 0°C° 0 mm 4 m/s 746 mmHg 57%
18:00 0°C° 0 mm 3 m/s 747 mmHg 61%
19:00 -1°C° 0 mm 3 m/s 747 mmHg 66%
20:00 -1°C° 0 mm 2 m/s 748 mmHg 68%
21:00 -1°C° 0 mm 2 m/s 749 mmHg 70%
22:00 -2°C° 0 mm 2 m/s 749 mmHg 71%
23:00 -2°C° 0 mm 2 m/s 749 mmHg 72%

Poimâine, 6 Martie, Sâmbătă

Timp Temperatura Precipitaţii Vânt Presiune Umiditate
00:00 -2°C° 0 mm 3 m/s 750 mmHg 72%
01:00 -2°C° 0 mm 3 m/s 750 mmHg 73%
02:00 -2°C° 0 mm 3 m/s 750 mmHg 73%
03:00 -2°C° 0 mm 3 m/s 751 mmHg 74%
04:00 -4°C° 0 mm 3 m/s 751 mmHg 75%
05:00 -4°C° 0 mm 3 m/s 751 mmHg 75%
06:00 -4°C° 0 mm 3 m/s 752 mmHg 76%
07:00 -4°C° 0 mm 3 m/s 752 mmHg 77%
08:00 -2°C° 0 mm 3 m/s 752 mmHg 70%
09:00 -1°C° 0 mm 3 m/s 753 mmHg 64%
10:00 0°C° 0 mm 3 m/s 753 mmHg 57%
11:00 0°C° 0 mm 3 m/s 753 mmHg 52%
12:00 +2°C° 0 mm 2 m/s 753 mmHg 47%
13:00 +3°C° 0 mm 2 m/s 753 mmHg 42%
14:00 +3°C° 0 mm 2 m/s 752 mmHg 42%
15:00 +3°C° 0 mm 2 m/s 752 mmHg 41%
16:00 +4°C° 0 mm 1 m/s 752 mmHg 41%
17:00 +3°C° 0 mm 1 m/s 751 mmHg 46%
18:00 +2°C° 0 mm 1 m/s 751 mmHg 51%
19:00 +1°C° 0 mm 1 m/s 751 mmHg 55%
20:00 0°C° 0 mm 1 m/s 751 mmHg 56%
21:00 -2°C° 0 mm 2 m/s 751 mmHg 57%
22:00 -2°C° 0 mm 2 m/s 751 mmHg 58%
23:00 -2°C° 0 mm 2 m/s 751 mmHg 58%

7 Martie, Duminică

Timp Temperatura Precipitaţii Vânt Presiune Umiditate
00:00 -2°C° 0 mm 3 m/s 750 mmHg 58%
01:00 -2°C° 0 mm 3 m/s 750 mmHg 57%
02:00 -2°C° 0 mm 3 m/s 750 mmHg 56%
03:00 -2°C° 0 mm 3 m/s 749 mmHg 55%
04:00 -2°C° 0 mm 3 m/s 749 mmHg 55%
05:00 -2°C° 0 mm 3 m/s 748 mmHg 54%
06:00 -2°C° 0 mm 3 m/s 748 mmHg 54%
07:00 -2°C° 0 mm 3 m/s 748 mmHg 53%
08:00 0°C° 0 mm 3 m/s 748 mmHg 48%
09:00 0°C° 0 mm 4 m/s 748 mmHg 43%
10:00 +3°C° 0 mm 4 m/s 747 mmHg 38%
11:00 +3°C° 0 mm 4 m/s 747 mmHg 37%
12:00 +4°C° 0 mm 4 m/s 746 mmHg 37%
13:00 +5°C° 0 mm 4 m/s 746 mmHg 36%
14:00 +5°C° 0 mm 4 m/s 745 mmHg 39%
15:00 +5°C° 0 mm 3 m/s 745 mmHg 41%
16:00 +5°C° 0 mm 3 m/s 744 mmHg 43%
17:00 +3°C° 0 mm 3 m/s 744 mmHg 49%
18:00 +2°C° 0 mm 3 m/s 744 mmHg 55%
19:00 +1°C° 0 mm 2 m/s 744 mmHg 60%
20:00 +1°C° 0 mm 2 m/s 744 mmHg 62%
21:00 +1°C° 0 mm 1 m/s 744 mmHg 64%
22:00 +1°C° 0 mm 1 m/s 744 mmHg 66%
23:00 +1°C° 0 mm 1 m/s 744 mmHg 67%

8 Martie, Luni

Timp Temperatura Precipitaţii Vânt Presiune Umiditate
00:00 +1°C° 0 mm 1 m/s 744 mmHg 68%
01:00 +1°C° 0 mm 1 m/s 743 mmHg 69%
02:00 +1°C° 0 mm 1 m/s 743 mmHg 71%
03:00 0°C° 0 mm 1 m/s 743 mmHg 73%
04:00 0°C° 0 mm 1 m/s 743 mmHg 74%
05:00 0°C° 0 mm 1 m/s 743 mmHg 76%
06:00 0°C° 0 mm 1 m/s 743 mmHg 78%
07:00 +1°C° 0 mm 1 m/s 743 mmHg 79%
08:00 -1°C° 0 mm 2 m/s 744 mmHg 78%
09:00 +1°C° 0 mm 2 m/s 744 mmHg 77%
10:00 +2°C° 0 mm 2 m/s 744 mmHg 75%
11:00 +2°C° 0 mm 2 m/s 744 mmHg 75%
12:00 +2°C° 0 mm 2 m/s 744 mmHg 74%
13:00 +3°C° 0 mm 2 m/s 745 mmHg 73%
14:00 +3°C° 0 mm 2 m/s 745 mmHg 73%
15:00 +2°C° 0 mm 2 m/s 744 mmHg 74%
16:00 +2°C° 0 mm 2 m/s 744 mmHg 74%
17:00 +2°C° 0 mm 2 m/s 745 mmHg 77%
18:00 +1°C° 0 mm 2 m/s 745 mmHg 80%
19:00 +2°C° 0 mm 1 m/s 745 mmHg 83%
20:00 +1°C° 0 mm 2 m/s 746 mmHg 82%
21:00 -1°C° 0 mm 2 m/s 746 mmHg 82%
22:00 -1°C° 0 mm 2 m/s 746 mmHg 81%
23:00 -1°C° 0 mm 2 m/s 746 mmHg 78%

9 Martie, Marţi

Timp Temperatura Precipitaţii Vânt Presiune Umiditate
00:00 -2°C° 0 mm 2 m/s 746 mmHg 75%
01:00 -2°C° 0 mm 2 m/s 746 mmHg 72%
02:00 -2°C° 0 mm 2 m/s 746 mmHg 71%
03:00 -2°C° 0 mm 2 m/s 746 mmHg 70%
04:00 -1°C° 0 mm 1 m/s 746 mmHg 70%
05:00 -1°C° 0 mm 1 m/s 746 mmHg 69%
06:00 -1°C° 0 mm 1 m/s 746 mmHg 68%
07:00 -1°C° 0 mm 1 m/s 746 mmHg 67%
08:00 -1°C° 0 mm 2 m/s 746 mmHg 62%
09:00 +1°C° 0 mm 2 m/s 746 mmHg 57%
10:00 +2°C° 0 mm 2 m/s 746 mmHg 51%
11:00 +2°C° 0 mm 2 m/s 746 mmHg 49%
12:00 +3°C° 0 mm 2 m/s 746 mmHg 46%
13:00 +4°C° 0 mm 2 m/s 746 mmHg 44%
14:00 +4°C° 0 mm 2 m/s 746 mmHg 45%
15:00 +4°C° 0 mm 2 m/s 746 mmHg 45%
16:00 +4°C° 0 mm 2 m/s 745 mmHg 45%
17:00 +3°C° 0 mm 2 m/s 746 mmHg 51%
18:00 +1°C° 0 mm 2 m/s 746 mmHg 56%
19:00 -1°C° 0 mm 2 m/s 746 mmHg 61%
20:00 -1°C° 0 mm 2 m/s 746 mmHg 62%
21:00 -2°C° 0 mm 2 m/s 746 mmHg 63%
22:00 0°C° 0 mm 1 m/s 746 mmHg 64%
23:00 -2°C° 0 mm 2 m/s 746 mmHg 65%
Arată mai mult

Formular de consimțământ

Meteoprog și furnizorii noștri de servicii pot stoca și accesa date personale, precum cookies, identificatori de dispozitiv sau alte tehnologii similare pe dispozitivul dumneavoastră și procesa astfel de date pentru a personaliza conținutul și reclamele, dar și pentru a oferi caracteristici de social media și pentru a analiza traficul.

  • Stocarea și/sau accesarea informațiilor pe dispozitivul dumneavoastră

    Cookies, identificatori de dispozitiv sau alte informații pot fi stocate sau accesate pe dispozitiv în scopurile indicate mai sus.

  • Reclame și conținut personalizat, evaluarea reclamelor și a conținutului, informații despre audiențe și dezvoltarea produselor

    Reclamele și conținutul pot fi personalizate pe baza unui profil. Pot fi adăugate date suplimentare pentru a personaliza mai bine reclamele și conținutul. Performanța reclamelor și conținutului poate fi măsurată. Pot fi obținute informații despre utilizatorii care au văzut reclamele și conținutul. Aceste date pot fi utilizate pentru a dezvolta sau îmbunătăți experiența utilizatorilor, sistemele și software-ul.

Dând clic pe ‘Sunt de acord’, permiteți utilizarea cookie-urilor menționate, a identificatorilor de dispozitiv, balizelor web sau altor tehnologii similare. Setările pot fi modificate din browser-ul dispozitivului dumneavoastră.

În anumite scopuri, interesele legitime pot prima asupra consimțământului. Puteți citi mai multe informații în acest sens în Politica privind Confidențialitatea Datelor și Cookie.